Location: Quedlinburg
(51.7921°N, 11.1414°E)
Time: 05:41:48
(UTC+02:00)

BEESAT - Pass Details

Date: 21 March 2026
Orbit: 683 x 693 km, 98.4° (Epoch: 17 April)

Event Time Altitude Azimuth Distance (km) Brightness Sun altitude
Rises 23:58:24 0° 15° (NNE) 3,065 ? -37.8°
Reaches altitude 10° 00:00:39 10° 16° (NNE) 2,143 ? -37.9°
Enters shadow 00:01:39 16° 17° (NNE) 1,743 ? -37.9°
